• In Denmark
  • List of Countries
  • For 7 days
  • Water Temperature
  • Satellite Maps
  • Weather Map
  • Weather Widgets
  • user-avatar
    Login

    Hourly Weather Klagenfurt

    Today, 19 July, Thursday

    Time Temperature Precipitation Wind Pressure Humidity
    00:00 +15°C° 0 mm 1 mps 690 mmHg 75%
    01:00 +15°C° 0 mm 1 mps 690 mmHg 73%
    02:00 +14°C° 0 mm 1 mps 690 mmHg 74%
    03:00 +14°C° 0 mm 1 mps 690 mmHg 75%
    04:00 +13°C° 0 mm 1 mps 689 mmHg 76%
    05:00 +15°C° 0 mm 1 mps 690 mmHg 72%
    06:00 +18°C° 0 mm 1 mps 690 mmHg 68%
    07:00 +20°C° 0 mm 1 mps 691 mmHg 64%
    08:00 +22°C° 0 mm 1 mps 691 mmHg 55%
    09:00 +25°C° 0 mm 1 mps 691 mmHg 46%
    10:00 +27°C° 0 mm 1 mps 692 mmHg 37%
    11:00 +28°C° 0 mm 1 mps 692 mmHg 35%
    12:00 +30°C° 0 mm 1 mps 692 mmHg 33%
    13:00 +31°C° 0 mm 1 mps 692 mmHg 31%
    14:00 +30°C° 0 mm 1 mps 692 mmHg 32%
    15:00 +29°C° 0 mm 1 mps 692 mmHg 34%
    16:00 +29°C° 0 mm 1 mps 691 mmHg 35%
    17:00 +26°C° 0 mm 1 mps 691 mmHg 46%
    18:00 +24°C° 0 mm 1 mps 690 mmHg 57%
    19:00 +22°C° 0 mm 1 mps 690 mmHg 68%
    20:00 +21°C° 0 mm 1 mps 690 mmHg 72%
    21:00 +19°C° 0 mm 1 mps 690 mmHg 75%
    22:00 +16°C° 0 mm 1 mps 690 mmHg 79%
    23:00 +16°C° 0 mm 1 mps 690 mmHg 81%

    Tomorrow, 20 July, Friday

    Time Temperature Precipitation Wind Pressure Humidity
    00:00 +15°C° 0 mm 1 mps 690 mmHg 82%
    01:00 +15°C° 0 mm 1 mps 690 mmHg 84%
    02:00 +14°C° 0 mm 1 mps 690 mmHg 85%
    03:00 +14°C° 0 mm 1 mps 690 mmHg 86%
    04:00 +14°C° 0 mm 1 mps 690 mmHg 87%
    05:00 +15°C° 0 mm 1 mps 690 mmHg 81%
    06:00 +16°C° 0 mm 0 mps 690 mmHg 75%
    07:00 +18°C° 0 mm 0 mps 691 mmHg 69%
    08:00 +22°C° 0 mm 1 mps 691 mmHg 62%
    09:00 +25°C° 0 mm 1 mps 691 mmHg 55%
    10:00 +27°C° 0 mm 1 mps 692 mmHg 48%
    11:00 +27°C° 0.1 mm 1 mps 692 mmHg 48%
    12:00 +28°C° 0.1 mm 1 mps 691 mmHg 47%
    13:00 +29°C° 0.1 mm 1 mps 691 mmHg 47%
    14:00 +28°C° 0.5 mm 1 mps 691 mmHg 51%
    15:00 +27°C° 0.5 mm 1 mps 691 mmHg 55%
    16:00 +26°C° 0.5 mm 1 mps 690 mmHg 58%
    17:00 +25°C° 0.5 mm 1 mps 690 mmHg 66%
    18:00 +23°C° 0.5 mm 1 mps 690 mmHg 73%
    19:00 +21°C° 0.5 mm 1 mps 689 mmHg 80%
    20:00 +20°C° 0.2 mm 1 mps 689 mmHg 82%
    21:00 +20°C° 0.2 mm 1 mps 689 mmHg 84%
    22:00 +19°C° 0.2 mm 1 mps 689 mmHg 85%
    23:00 +16°C° 0.1 mm 0 mps 689 mmHg 87%

    Day after tomorrow, 21 July, Saturday

    Time Temperature Precipitation Wind Pressure Humidity
    00:00 +16°C° 0.1 mm 0 mps 689 mmHg 88%
    01:00 +15°C° 0.1 mm 0 mps 689 mmHg 90%
    02:00 +15°C° 0.1 mm 0 mps 688 mmHg 90%
    03:00 +15°C° 0.1 mm 0 mps 688 mmHg 91%
    04:00 +14°C° 0.1 mm 0 mps 688 mmHg 92%
    05:00 +16°C° 0.3 mm 0 mps 688 mmHg 89%
    06:00 +17°C° 0.3 mm 0 mps 688 mmHg 86%
    07:00 +18°C° 0.3 mm 0 mps 689 mmHg 83%
    08:00 +20°C° 0.5 mm 0 mps 689 mmHg 76%
    09:00 +24°C° 0.5 mm 1 mps 689 mmHg 69%
    10:00 +25°C° 0.5 mm 1 mps 689 mmHg 62%
    11:00 +26°C° 0.7 mm 1 mps 689 mmHg 59%
    12:00 +27°C° 0.7 mm 2 mps 689 mmHg 56%
    13:00 +27°C° 0.7 mm 2 mps 689 mmHg 53%
    14:00 +27°C° 0.7 mm 2 mps 689 mmHg 55%
    15:00 +27°C° 0.7 mm 2 mps 689 mmHg 58%
    16:00 +26°C° 0.7 mm 2 mps 689 mmHg 60%
    17:00 +24°C° 0.8 mm 2 mps 688 mmHg 68%
    18:00 +21°C° 0.8 mm 2 mps 688 mmHg 76%
    19:00 +20°C° 0.8 mm 1 mps 688 mmHg 83%
    20:00 +19°C° 0.5 mm 1 mps 688 mmHg 86%
    21:00 +18°C° 0.5 mm 1 mps 688 mmHg 89%
    22:00 +16°C° 0.5 mm 1 mps 688 mmHg 92%
    23:00 +16°C° 0.2 mm 1 mps 688 mmHg 92%

    22 July, Sunday

    Time Temperature Precipitation Wind Pressure Humidity
    00:00 +16°C° 0.2 mm 1 mps 688 mmHg 92%
    01:00 +15°C° 0.2 mm 1 mps 687 mmHg 93%
    02:00 +15°C° 0.1 mm 1 mps 687 mmHg 93%
    03:00 +15°C° 0.1 mm 1 mps 687 mmHg 93%
    04:00 +15°C° 0.1 mm 1 mps 687 mmHg 93%
    05:00 +16°C° 0.2 mm 1 mps 687 mmHg 91%
    06:00 +16°C° 0.2 mm 1 mps 687 mmHg 89%
    07:00 +18°C° 0.2 mm 1 mps 688 mmHg 86%
    08:00 +20°C° 0.4 mm 1 mps 688 mmHg 80%
    09:00 +22°C° 0.4 mm 1 mps 688 mmHg 73%
    10:00 +23°C° 0.4 mm 1 mps 688 mmHg 66%
    11:00 +24°C° 0.8 mm 1 mps 688 mmHg 66%
    12:00 +24°C° 0.8 mm 1 mps 688 mmHg 65%
    13:00 +25°C° 0.8 mm 1 mps 688 mmHg 65%
    14:00 +25°C° 1.2 mm 1 mps 687 mmHg 67%
    15:00 +24°C° 1.2 mm 1 mps 687 mmHg 69%
    16:00 +22°C° 1.2 mm 0 mps 687 mmHg 70%
    17:00 +22°C° 1.5 mm 1 mps 687 mmHg 76%
    18:00 +21°C° 1.5 mm 1 mps 686 mmHg 82%
    19:00 +19°C° 1.5 mm 1 mps 686 mmHg 88%
    20:00 +18°C° 0.4 mm 1 mps 686 mmHg 90%
    21:00 +18°C° 0.4 mm 1 mps 686 mmHg 91%
    22:00 +16°C° 0.4 mm 1 mps 686 mmHg 92%
    23:00 +15°C° 0 mm 1 mps 686 mmHg 93%

    23 July, Monday

    Time Temperature Precipitation Wind Pressure Humidity
    00:00 +15°C° 0 mm 1 mps 686 mmHg 93%
    01:00 +14°C° 0 mm 1 mps 686 mmHg 93%
    02:00 +14°C° 0.1 mm 1 mps 686 mmHg 93%
    03:00 +14°C° 0.1 mm 1 mps 686 mmHg 93%
    04:00 +14°C° 0.1 mm 1 mps 686 mmHg 92%
    05:00 +15°C° 0.2 mm 1 mps 687 mmHg 91%
    06:00 +15°C° 0.2 mm 1 mps 687 mmHg 90%
    07:00 +16°C° 0.2 mm 1 mps 688 mmHg 88%
    08:00 +18°C° 0.2 mm 1 mps 688 mmHg 82%
    09:00 +19°C° 0.2 mm 2 mps 689 mmHg 75%
    10:00 +20°C° 0.2 mm 2 mps 689 mmHg 69%
    11:00 +23°C° 0.1 mm 2 mps 689 mmHg 61%
    12:00 +24°C° 0.1 mm 2 mps 690 mmHg 54%
    13:00 +26°C° 0.1 mm 2 mps 690 mmHg 46%
    14:00 +26°C° 0 mm 2 mps 690 mmHg 45%
    15:00 +26°C° 0 mm 2 mps 690 mmHg 44%
    16:00 +26°C° 0 mm 2 mps 690 mmHg 44%
    17:00 +25°C° 0 mm 2 mps 690 mmHg 53%
    18:00 +23°C° 0 mm 1 mps 689 mmHg 62%
    19:00 +21°C° 0 mm 1 mps 689 mmHg 70%
    20:00 +20°C° 0 mm 1 mps 689 mmHg 74%
    21:00 +18°C° 0 mm 1 mps 690 mmHg 78%
    22:00 +15°C° 0 mm 1 mps 690 mmHg 82%
    23:00 +15°C° 0 mm 1 mps 690 mmHg 84%

    24 July, Tuesday

    Time Temperature Precipitation Wind Pressure Humidity
    00:00 +14°C° 0 mm 1 mps 690 mmHg 85%
    01:00 +14°C° 0 mm 1 mps 689 mmHg 87%
    02:00 +13°C° 0 mm 1 mps 689 mmHg 87%
    03:00 +13°C° 0 mm 1 mps 689 mmHg 87%
    04:00 +13°C° 0 mm 1 mps 690 mmHg 87%
    05:00 +14°C° 0 mm 1 mps 690 mmHg 82%
    06:00 +16°C° 0 mm 1 mps 690 mmHg 76%
    07:00 +19°C° 0 mm 1 mps 691 mmHg 71%
    08:00 +21°C° 0 mm 1 mps 691 mmHg 62%
    09:00 +23°C° 0 mm 1 mps 691 mmHg 53%
    10:00 +26°C° 0 mm 1 mps 692 mmHg 44%
    11:00 +27°C° 0 mm 1 mps 692 mmHg 42%
    12:00 +28°C° 0 mm 1 mps 691 mmHg 39%
    13:00 +29°C° 0 mm 1 mps 691 mmHg 37%
    14:00 +28°C° 0 mm 1 mps 691 mmHg 39%
    15:00 +28°C° 0 mm 1 mps 691 mmHg 41%
    16:00 +27°C° 0 mm 1 mps 690 mmHg 43%
    17:00 +26°C° 0 mm 1 mps 690 mmHg 52%
    18:00 +24°C° 0 mm 1 mps 690 mmHg 62%
    19:00 +22°C° 0 mm 1 mps 690 mmHg 71%
    20:00 +20°C° 0 mm 1 mps 690 mmHg 75%
    21:00 +17°C° 0 mm 0 mps 690 mmHg 80%
    22:00 +15°C° 0 mm 0 mps 690 mmHg 85%
    23:00 +15°C° 0 mm 0 mps 690 mmHg 86%
    Show more